Weather Roundup
Issued by NWS Corpus Christi, TX

Home | Current Version | Previous Version | Text Only | Print | Product List | Glossary On
Versions: 1 2 3 4 5 6 7 8 9 10 11 12 13 14 15 16 17 18 19 20 21 22 23 24 25 26 27 28 29 30 31 32 33 34 35 36 37 38 39 40 41 42 43 44 45 46 47 48 49 50
280
ASUS44 KCRP 271610
HRRCRP

SOUTH TEXAS REGIONAL WEATHER ROUNDUP
NATIONAL WEATHER SERVICE CORPUS CHRISTI TX
1100 AM CDT FRI MAY 27 2016


TXZ229>244-271700-
...CORPUS CHRISTI AREA OBSERVATIONS...

CITY           SKY/WX    TMP DP  RH WIND       PRES   REMARKS
CORPUS CHRISTI PTSUNNY   86  78  77 S18       29.73F HX  98
NAS CORPUS CHR CLOUDY    84  80  88 S21G30    29.74F HX  97
ROCKPORT       CLOUDY    85  77  77 SE18G28   29.75S HAZE    HX  95
KINGSVILLE NAS PTSUNNY   87  79  76 S20G30    29.72F HX 101
ALICE          CLOUDY    88  75  65 S15G22    29.72S HX  97
FALFURRIAS     CLOUDY    89  75  62 S20G25    29.72F HX  99
$$

...VICTORIA AREA OBSERVATIONS...

CITY           SKY/WX    TMP DP  RH WIND       PRES   REMARKS
VICTORIA       CLOUDY    86  75  69 S24G33    29.76R HX  95
BEEVILLE       CLOUDY    86  78  76 S15G25    29.74S HX  99
PLEASANTON     CLOUDY    86  74  66 SE12G20   29.73S HX  93
SAN ANTONIO    PTSUNNY   85  74  69 S14       29.75S HX  92
$$

...LAREDO AREA OBSERVATIONS...

CITY           SKY/WX    TMP DP  RH WIND       PRES   REMARKS
LAREDO         SUNNY     88  72  58 SW6       29.73F HX  94
COTULLA        SUNNY     88  70  55 SW9       29.72R HX  93
DEL RIO        SUNNY     85  62  46 NW12      29.77R
MCALLEN        SUNNY     91  76  61 S16G24    29.74S HX 103
HEBBRONVILLE   SUNNY     86  74  67 S10       29.75R HX  95
$$

...OTHER TEXAS OBSERVATIONS...

CITY           SKY/WX    TMP DP  RH WIND       PRES   REMARKS
BROWNSVILLE    MOSUNNY   88  77  69 S23G32    29.75F HX 100
HOUSTON        CLOUDY    76  73  91 SE9       29.78F
COL. STATION   TSTM      66  65  96 N14       29.80F FOG
AUSTIN         LGT RAIN  67  66  97 NE16      29.79R
WACO           LGT RAIN  65  63  93 E12       29.84F
FORT WORTH     TSTM      67  64  90 SE20G32   29.76F
WICHITA FALLS  CLOUDY    70  61  73 S20G29    29.71S
LUBBOCK        MOSUNNY   71  43  36 SW6       29.81F
EL PASO        SUNNY     72  23  16 W13       29.95S
$$

...MARINE OBSERVATIONS...

STATION/POSITION TIME  SKY/WX   TEMP    WIND        PRES    VSBY  WAVE   SWELL
                                AIR SEA DIR/SP/G                  HT/PER HT/PER
                 (UTC)          (F)     (DEG/KT/KT) (MB)    (MI)  (FT/S) (FT/S)
PORT ARANSAS     1600            82 83  150/ 22/ 25 1008.0F
BUOY 90 E PORT A 1550            81 81  140/ 19/ 23 1009.1F         7/ 7
BUOY 45 SE BAFFI 1550            82 81  170/ 19/ 25 1007.2R         7/ 8   3/14
BUOY 200 E PT IS 1550                                 N/A           8/ 7
BUOY 15 E GALVES 1550            80 80  150/ 21/ 25 1009.1R         5/ 7
$$




USA.gov is the U.S. government's official web portal to all federal, state and local government web resources and services.